Tiempo cada hora Pinsa

Hoy, 20 Octubre, Martes

Tiempo Temperatura Precipitaciones Viento Presión Humedad
00:00 +34°C° 0 mm 2 mps 732 mmHg 29%
01:00 +34°C° 0 mm 2 mps 732 mmHg 30%
02:00 +32°C° 0 mm 2 mps 732 mmHg 31%
03:00 +32°C° 0 mm 2 mps 731 mmHg 31%
04:00 +31°C° 0 mm 2 mps 732 mmHg 34%
05:00 +31°C° 0 mm 3 mps 732 mmHg 36%
06:00 +30°C° 0 mm 3 mps 732 mmHg 39%
07:00 +33°C° 0 mm 3 mps 733 mmHg 36%
08:00 +35°C° 0 mm 4 mps 734 mmHg 34%
09:00 +37°C° 0 mm 4 mps 734 mmHg 31%
10:00 +38°C° 0 mm 3 mps 734 mmHg 28%
11:00 +39°C° 0 mm 2 mps 733 mmHg 24%
12:00 +40°C° 0 mm 1 mps 733 mmHg 21%
13:00 +40°C° 0 mm 1 mps 733 mmHg 19%
14:00 +41°C° 0 mm 1 mps 732 mmHg 18%
15:00 +41°C° 0 mm 1 mps 731 mmHg 16%
16:00 +40°C° 0 mm 1 mps 732 mmHg 17%
17:00 +40°C° 0 mm 2 mps 732 mmHg 18%
18:00 +39°C° 0 mm 2 mps 732 mmHg 19%
19:00 +38°C° 0 mm 2 mps 732 mmHg 20%
20:00 +38°C° 0 mm 3 mps 733 mmHg 21%
21:00 +37°C° 0 mm 3 mps 733 mmHg 22%
22:00 +36°C° 0 mm 3 mps 733 mmHg 24%
23:00 +36°C° 0 mm 3 mps 733 mmHg 26%

Mañana, 21 Octubre, Miércoles

Tiempo Temperatura Precipitaciones Viento Presión Humedad
00:00 +35°C° 0 mm 3 mps 733 mmHg 28%
01:00 +34°C° 0 mm 3 mps 732 mmHg 29%
02:00 +34°C° 0 mm 3 mps 732 mmHg 30%
03:00 +33°C° 0 mm 3 mps 732 mmHg 31%
04:00 +31°C° 0 mm 3 mps 732 mmHg 34%
05:00 +31°C° 0 mm 3 mps 732 mmHg 37%
06:00 +30°C° 0 mm 3 mps 733 mmHg 39%
07:00 +32°C° 0 mm 4 mps 733 mmHg 38%
08:00 +34°C° 0 mm 4 mps 734 mmHg 36%
09:00 +35°C° 0 mm 5 mps 734 mmHg 35%
10:00 +37°C° 0 mm 4 mps 734 mmHg 31%
11:00 +38°C° 0 mm 3 mps 733 mmHg 28%
12:00 +39°C° 0 mm 2 mps 733 mmHg 24%
13:00 +40°C° 0 mm 2 mps 732 mmHg 22%
14:00 +40°C° 0 mm 2 mps 732 mmHg 19%
15:00 +41°C° 0 mm 2 mps 731 mmHg 17%
16:00 +40°C° 0 mm 2 mps 732 mmHg 18%
17:00 +39°C° 0 mm 2 mps 732 mmHg 19%
18:00 +39°C° 0 mm 3 mps 732 mmHg 20%
19:00 +38°C° 0 mm 2 mps 733 mmHg 21%
20:00 +38°C° 0 mm 2 mps 733 mmHg 22%
21:00 +36°C° 0 mm 1 mps 734 mmHg 23%
22:00 +36°C° 0 mm 1 mps 733 mmHg 23%
23:00 +35°C° 0 mm 1 mps 733 mmHg 23%

Pasado mañana, 22 Octubre, Jueves

Tiempo Temperatura Precipitaciones Viento Presión Humedad
00:00 +36°C° 0 mm 2 mps 733 mmHg 23%
01:00 +35°C° 0 mm 2 mps 733 mmHg 25%
02:00 +34°C° 0 mm 2 mps 733 mmHg 27%
03:00 +32°C° 0 mm 2 mps 732 mmHg 29%
04:00 +32°C° 0 mm 2 mps 733 mmHg 31%
05:00 +31°C° 0 mm 2 mps 733 mmHg 33%
06:00 +30°C° 0 mm 2 mps 733 mmHg 34%
07:00 +32°C° 0 mm 2 mps 734 mmHg 32%
08:00 +35°C° 0 mm 3 mps 734 mmHg 30%
09:00 +36°C° 0 mm 3 mps 735 mmHg 28%
10:00 +38°C° 0 mm 2 mps 734 mmHg 24%
11:00 +39°C° 0 mm 2 mps 734 mmHg 19%
12:00 +41°C° 0 mm 1 mps 733 mmHg 15%
13:00 +42°C° 0 mm 3 mps 733 mmHg 13%
14:00 +43°C° 0 mm 4 mps 732 mmHg 11%
15:00 +44°C° 0 mm 6 mps 731 mmHg 10%
16:00 +42°C° 0 mm 5 mps 732 mmHg 11%
17:00 +41°C° 0 mm 4 mps 732 mmHg 12%
18:00 +38°C° 0 mm 3 mps 732 mmHg 13%
19:00 +37°C° 0 mm 3 mps 732 mmHg 13%
20:00 +37°C° 0 mm 3 mps 733 mmHg 14%
21:00 +36°C° 0 mm 3 mps 734 mmHg 14%
22:00 +35°C° 0 mm 3 mps 733 mmHg 15%
23:00 +34°C° 0 mm 3 mps 733 mmHg 16%

23 Octubre, Viernes

Tiempo Temperatura Precipitaciones Viento Presión Humedad
00:00 +34°C° 0 mm 2 mps 733 mmHg 17%
01:00 +32°C° 0 mm 2 mps 733 mmHg 19%
02:00 +31°C° 0 mm 1 mps 733 mmHg 20%
03:00 +30°C° 0 mm 1 mps 733 mmHg 22%
04:00 +29°C° 0 mm 1 mps 733 mmHg 23%
05:00 +29°C° 0 mm 1 mps 733 mmHg 24%
06:00 +28°C° 0 mm 1 mps 733 mmHg 25%
07:00 +31°C° 0 mm 1 mps 734 mmHg 21%
08:00 +33°C° 0 mm 1 mps 735 mmHg 18%
09:00 +34°C° 0 mm 0 mps 735 mmHg 15%
10:00 +38°C° 0 mm 2 mps 735 mmHg 13%
11:00 +41°C° 0 mm 4 mps 734 mmHg 11%
12:00 +44°C° 0 mm 6 mps 734 mmHg 8%
13:00 +44°C° 0 mm 6 mps 733 mmHg 8%
14:00 +44°C° 0 mm 6 mps 733 mmHg 8%
15:00 +44°C° 0 mm 7 mps 732 mmHg 7%
16:00 +42°C° 0 mm 6 mps 732 mmHg 8%
17:00 +40°C° 0 mm 5 mps 732 mmHg 8%
18:00 +38°C° 0 mm 4 mps 732 mmHg 9%
19:00 +37°C° 0 mm 3 mps 733 mmHg 9%
20:00 +36°C° 0 mm 3 mps 733 mmHg 10%
21:00 +35°C° 0 mm 3 mps 734 mmHg 10%
22:00 +34°C° 0 mm 3 mps 734 mmHg 11%
23:00 +34°C° 0 mm 3 mps 733 mmHg 11%

24 Octubre, Sábado

Tiempo Temperatura Precipitaciones Viento Presión Humedad
00:00 +33°C° 0 mm 3 mps 733 mmHg 12%
01:00 +31°C° 0 mm 3 mps 733 mmHg 12%
02:00 +31°C° 0 mm 3 mps 733 mmHg 13%
03:00 +30°C° 0 mm 3 mps 733 mmHg 13%
04:00 +30°C° 0 mm 3 mps 733 mmHg 14%
05:00 +29°C° 0 mm 3 mps 733 mmHg 14%
06:00 +29°C° 0 mm 3 mps 733 mmHg 15%
07:00 +32°C° 0 mm 4 mps 734 mmHg 13%
08:00 +35°C° 0 mm 6 mps 735 mmHg 12%
09:00 +39°C° 0 mm 8 mps 735 mmHg 10%
10:00 +40°C° 0 mm 7 mps 735 mmHg 9%
11:00 +41°C° 0 mm 7 mps 734 mmHg 8%
12:00 +43°C° 0 mm 7 mps 734 mmHg 8%
13:00 +42°C° 0 mm 6 mps 733 mmHg 7%
14:00 +43°C° 0 mm 5 mps 732 mmHg 7%
15:00 +43°C° 0 mm 4 mps 732 mmHg 6%
16:00 +41°C° 0 mm 4 mps 732 mmHg 7%
17:00 +38°C° 0 mm 3 mps 732 mmHg 8%
18:00 +37°C° 0 mm 3 mps 732 mmHg 9%
19:00 +36°C° 0 mm 3 mps 732 mmHg 10%
20:00 +35°C° 0 mm 3 mps 733 mmHg 11%
21:00 +34°C° 0 mm 3 mps 733 mmHg 11%
22:00 +33°C° 0 mm 3 mps 733 mmHg 12%
23:00 +31°C° 0 mm 3 mps 733 mmHg 13%

25 Octubre, Domingo

Tiempo Temperatura Precipitaciones Viento Presión Humedad
00:00 +31°C° 0 mm 3 mps 733 mmHg 14%
01:00 +30°C° 0 mm 3 mps 733 mmHg 15%
02:00 +30°C° 0 mm 3 mps 732 mmHg 16%
03:00 +29°C° 0 mm 3 mps 732 mmHg 16%
04:00 +29°C° 0 mm 2 mps 732 mmHg 17%
05:00 +28°C° 0 mm 2 mps 732 mmHg 18%
06:00 +28°C° 0 mm 2 mps 733 mmHg 19%
07:00 +30°C° 0 mm 2 mps 733 mmHg 17%
08:00 +34°C° 0 mm 3 mps 733 mmHg 15%
09:00 +36°C° 0 mm 3 mps 734 mmHg 13%
10:00 +37°C° 0 mm 3 mps 734 mmHg 12%
11:00 +38°C° 0 mm 3 mps 733 mmHg 11%
12:00 +40°C° 0 mm 3 mps 733 mmHg 10%
13:00 +40°C° 0 mm 3 mps 732 mmHg 10%
14:00 +40°C° 0 mm 3 mps 732 mmHg 9%
15:00 +42°C° 0 mm 3 mps 731 mmHg 8%
16:00 +39°C° 0 mm 2 mps 731 mmHg 9%
17:00 +38°C° 0 mm 2 mps 731 mmHg 10%
18:00 +36°C° 0 mm 2 mps 731 mmHg 11%
19:00 +35°C° 0 mm 2 mps 732 mmHg 12%
20:00 +35°C° 0 mm 2 mps 732 mmHg 12%
21:00 +34°C° 0 mm 2 mps 733 mmHg 13%
22:00 +32°C° 0 mm 2 mps 733 mmHg 13%
23:00 +32°C° 0 mm 2 mps 733 mmHg 14%

26 Octubre, Lunes

Tiempo Temperatura Precipitaciones Viento Presión Humedad
00:00 +31°C° 0 mm 2 mps 733 mmHg 14%
01:00 +31°C° 0 mm 2 mps 732 mmHg 16%
02:00 +30°C° 0 mm 2 mps 732 mmHg 18%
03:00 +29°C° 0 mm 2 mps 732 mmHg 19%
04:00 +29°C° 0 mm 2 mps 732 mmHg 20%
05:00 +28°C° 0 mm 2 mps 732 mmHg 22%
06:00 +28°C° 0 mm 2 mps 732 mmHg 23%
07:00 +30°C° 0 mm 2 mps 733 mmHg 20%
08:00 +32°C° 0 mm 2 mps 733 mmHg 18%
09:00 +35°C° 0 mm 1 mps 734 mmHg 16%
10:00 +37°C° 0 mm 3 mps 733 mmHg 14%
11:00 +40°C° 0 mm 4 mps 733 mmHg 12%
12:00 +42°C° 0 mm 5 mps 733 mmHg 10%
13:00 +42°C° 0 mm 5 mps 732 mmHg 9%
14:00 +42°C° 0 mm 5 mps 731 mmHg 9%
15:00 +42°C° 0 mm 5 mps 731 mmHg 9%
16:00 +40°C° 0 mm 4 mps 731 mmHg 9%
17:00 +38°C° 0 mm 3 mps 731 mmHg 10%
18:00 +36°C° 0 mm 2 mps 731 mmHg 11%
19:00 +35°C° 0 mm 2 mps 731 mmHg 11%
20:00 +35°C° 0 mm 3 mps 732 mmHg 12%
21:00 +34°C° 0 mm 3 mps 732 mmHg 12%
22:00 +33°C° 0 mm 3 mps 732 mmHg 12%
23:00 +33°C° 0 mm 3 mps 732 mmHg 13%
Mostrar más

Necesitamos Su Consentimiento

Meteoprog y nuestros Proveedores de Servicios pueden almacenar y acceder a sus datos personales como cookies, identificadores de dispositivo u otras tecnologías similares de su dispositivo y procesar dichos datos para personalizar contenido y anuncios, además de ofrecer funciones de redes sociales y analizar el tráfico.

  • Almacenar y/o acceder a información en su dispositivo

    Se puede almacenar o acceder a cookies, identificadores de dispositivo u otra información de su dispositivo para los fines anteriormente indicados.

  • Anuncios y contenido personalizados, medición de anuncios y contenido, percepciones del público, y desarrollo de productos

    Los anuncios y el contenido pueden personalizarse en base a su perfil. Se pueden añadir más datos para personalizar mejor los anuncios y contenidos. Se puede medir el rendimiento de los anuncios y contenidos. Se puede obtener la percepción sobre el público que ha visto los anuncios y contenidos. Dichos datos pueden usarse para desarrollar o mejorar la experiencia del usuario, sistemas y software.

Al hacer clic en ‘Estoy De Acuerdo’ usted permitirá el uso de las cookies, identificadores de dispositivo, balizas web u otras tecnologías similares indicadas. Su configuración puede cambiarse desde el navegador de su dispositivo.

Para ciertos fines, los intereses legítimos pueden ser considerados por encima del consentimiento. Puede leer más sobre ello en nuestra Política de Privacidad y Cookies.